Location: Culver Garden
(33.9928°N, 118.4284°W)
Time: 20:32:14
(UTC+00:00)

Daily predictions for brighter satellites

Satellite Brightness Start Highest point End
(mag) Time Altitude Azimuth Time Altitude Azimuth Time Altitude Azimuth
STARLINK-1189 3.8 12:01:25 10° WNW 12:04:08 28° SW 12:06:51 10° S
OFEQ 5 4.4 12:01:56 10° ENE 12:04:35 72° SSE 12:07:08 11° WSW
STARLINK-1188 3.8 12:02:18 10° WNW 12:05:01 27° SW 12:07:42 10° S
STARLINK-1290 3.9 12:02:05 10° SSW 12:05:18 46° SE 12:08:32 10° ENE
STARLINK-1235 4.3 12:03:19 10° W 12:05:37 19° SW 12:07:55 10° S
STARLINK-1187 4.1 12:03:34 10° WNW 12:06:03 22° SW 12:08:33 10° S
Uosat 12 SS-18 rocket 4.3 12:02:44 10° NNW 12:07:05 82° ENE 12:11:56 10° SSE
STARLINK-1297 3.8 12:04:03 10° SSW 12:07:18 49° SE 12:10:33 10° NE
STARLINK-1191 3.9 12:04:50 10° WNW 12:07:27 25° SW 12:10:03 10° S
Landsat 5 4.5 12:04:13 10° SSW 12:08:07 30° W 12:12:05 10° NW
STARLINK-1211 3.6 12:04:00 10° NW 12:08:09 90° NE 12:12:17 10° SE
STARLINK-1221 3.9 12:05:44 10° WNW 12:08:20 24° SW 12:10:56 10° S
STARLINK-22 3.3 12:05:30 10° SSW 12:08:39 60° SE 12:11:48 10° NE
STARLINK-26 3.2 12:05:27 11° SW 12:08:43 68° NW 12:12:09 10° NE
ERS-2 4.2 12:07:55 10° WSW 12:09:02 11° W 12:10:09 10° WNW
STARLINK-1222 4.0 12:06:38 10° WNW 12:09:12 24° SW 12:11:46 10° S
Cosmos 1825 2.6 12:06:15 10° S 12:09:57 66° E 12:13:41 10° NNE
STARLINK-1214 4.0 12:07:35 10° WNW 12:10:07 23° SW 12:12:40 10° S
STARLINK-1283 3.4 12:06:38 10° SW 12:10:18 79° SE 12:13:58 10° NE
STARLINK-58 4.3 12:08:17 10° SSW 12:11:11 34° SE 12:14:06 10° ENE
Cosmos 2150 Rocket 3.9 12:06:34 10° NNW 12:11:43 70° WSW 12:16:48 10° S
STARLINK-1245 3.6 12:09:00 10° NW 12:13:08 81° SW 12:17:16 10° SE
STARLINK-1317 3.2 12:14:00 10° SW 12:17:23 79° SE 12:20:48 10° NE
STARLINK-1233 3.6 12:13:58 10° NW 12:18:06 73° SW 12:22:12 10° SE
CZ-4B R/B 1.3 12:15:58 10° S 12:18:58 53° W 12:21:57 10° NNW
